EN

Hourly Weather Lachon

Today, 26 July, Monday

Time Temperature Precipitation Wind Pressure Humidity
00:00 +21°C° 0 mm 3 mps 750 mmHg 71%
01:00 +21°C° 0 mm 2 mps 750 mmHg 71%
02:00 +21°C° 0.1 mm 3 mps 750 mmHg 71%
03:00 +21°C° 0.1 mm 4 mps 750 mmHg 71%
04:00 +21°C° 0.1 mm 4 mps 749 mmHg 70%
05:00 +21°C° 0.1 mm 5 mps 749 mmHg 70%
06:00 +22°C° 0.1 mm 5 mps 749 mmHg 69%
07:00 +22°C° 0 mm 5 mps 749 mmHg 70%
08:00 +24°C° 0 mm 6 mps 749 mmHg 66%
09:00 +26°C° 0 mm 6 mps 750 mmHg 63%
10:00 +27°C° 0 mm 6 mps 750 mmHg 60%
11:00 +27°C° 0.1 mm 6 mps 750 mmHg 58%
12:00 +27°C° 0.1 mm 6 mps 749 mmHg 57%
13:00 +28°C° 0 mm 6 mps 749 mmHg 58%
14:00 +28°C° 0.6 mm 5 mps 749 mmHg 59%
15:00 +28°C° 0.6 mm 5 mps 749 mmHg 60%
16:00 +28°C° 0.6 mm 5 mps 749 mmHg 61%
17:00 +26°C° 0.7 mm 4 mps 748 mmHg 69%
18:00 +25°C° 0.7 mm 4 mps 748 mmHg 78%
19:00 +22°C° 0.7 mm 3 mps 748 mmHg 86%
20:00 +21°C° 0.1 mm 3 mps 748 mmHg 89%
21:00 +21°C° 0.1 mm 2 mps 748 mmHg 91%
22:00 +21°C° 0.1 mm 1 mps 748 mmHg 94%
23:00 +21°C° 0 mm 1 mps 748 mmHg 94%

Tomorrow, 27 July, Tuesday

Time Temperature Precipitation Wind Pressure Humidity
00:00 +21°C° 0 mm 1 mps 748 mmHg 93%
01:00 +20°C° 0 mm 1 mps 748 mmHg 93%
02:00 +19°C° 0 mm 2 mps 748 mmHg 93%
03:00 +19°C° 0 mm 2 mps 748 mmHg 93%
04:00 +19°C° 0 mm 2 mps 748 mmHg 93%
05:00 +20°C° 0 mm 2 mps 748 mmHg 88%
06:00 +21°C° 0 mm 2 mps 748 mmHg 84%
07:00 +23°C° 0 mm 2 mps 748 mmHg 79%
08:00 +23°C° 0.1 mm 2 mps 749 mmHg 81%
09:00 +23°C° 0.1 mm 2 mps 749 mmHg 84%
10:00 +21°C° 0.1 mm 2 mps 749 mmHg 86%
11:00 +23°C° 0 mm 2 mps 749 mmHg 80%
12:00 +24°C° 0 mm 3 mps 749 mmHg 75%
13:00 +25°C° 0 mm 3 mps 749 mmHg 69%
14:00 +27°C° 0 mm 3 mps 749 mmHg 64%
15:00 +28°C° 0 mm 4 mps 749 mmHg 58%
16:00 +29°C° 0 mm 4 mps 749 mmHg 52%
17:00 +27°C° 0 mm 3 mps 749 mmHg 58%
18:00 +26°C° 0 mm 3 mps 749 mmHg 64%
19:00 +25°C° 0 mm 2 mps 749 mmHg 70%
20:00 +24°C° 0 mm 2 mps 749 mmHg 71%
21:00 +23°C° 0 mm 2 mps 749 mmHg 73%
22:00 +22°C° 0 mm 1 mps 750 mmHg 74%
23:00 +21°C° 0 mm 2 mps 750 mmHg 76%

Day after tomorrow, 28 July, Wednesday

Time Temperature Precipitation Wind Pressure Humidity
00:00 +21°C° 0 mm 2 mps 750 mmHg 78%
01:00 +20°C° 0 mm 2 mps 750 mmHg 80%
02:00 +20°C° 0 mm 2 mps 749 mmHg 81%
03:00 +19°C° 0 mm 2 mps 749 mmHg 82%
04:00 +19°C° 0 mm 2 mps 749 mmHg 83%
05:00 +21°C° 0 mm 2 mps 749 mmHg 76%
06:00 +24°C° 0 mm 2 mps 749 mmHg 70%
07:00 +25°C° 0 mm 2 mps 749 mmHg 64%
08:00 +27°C° 0 mm 2 mps 749 mmHg 59%
09:00 +28°C° 0 mm 2 mps 749 mmHg 54%
10:00 +30°C° 0 mm 2 mps 749 mmHg 48%
11:00 +29°C° 0 mm 2 mps 749 mmHg 48%
12:00 +29°C° 0 mm 2 mps 749 mmHg 49%
13:00 +29°C° 0 mm 3 mps 749 mmHg 49%
14:00 +28°C° 0.2 mm 3 mps 748 mmHg 54%
15:00 +27°C° 0.2 mm 3 mps 748 mmHg 59%
16:00 +26°C° 0.2 mm 3 mps 748 mmHg 64%
17:00 +25°C° 0.5 mm 2 mps 748 mmHg 69%
18:00 +24°C° 0.5 mm 2 mps 748 mmHg 74%
19:00 +22°C° 0.5 mm 1 mps 748 mmHg 79%
20:00 +22°C° 0.1 mm 1 mps 748 mmHg 80%
21:00 +20°C° 0.1 mm 2 mps 748 mmHg 82%
22:00 +20°C° 0.1 mm 2 mps 748 mmHg 84%
23:00 +19°C° 0 mm 2 mps 748 mmHg 86%

29 July, Thursday

Time Temperature Precipitation Wind Pressure Humidity
00:00 +19°C° 0 mm 2 mps 748 mmHg 89%
01:00 +19°C° 0 mm 3 mps 748 mmHg 91%
02:00 +19°C° 0 mm 3 mps 748 mmHg 92%
03:00 +18°C° 0 mm 3 mps 748 mmHg 93%
04:00 +18°C° 0 mm 3 mps 748 mmHg 94%
05:00 +19°C° 0 mm 3 mps 748 mmHg 89%
06:00 +20°C° 0 mm 3 mps 749 mmHg 83%
07:00 +21°C° 0 mm 3 mps 749 mmHg 78%
08:00 +22°C° 0 mm 4 mps 749 mmHg 70%
09:00 +25°C° 0 mm 4 mps 749 mmHg 62%
10:00 +26°C° 0 mm 5 mps 749 mmHg 54%
11:00 +27°C° 0 mm 5 mps 749 mmHg 50%
12:00 +27°C° 0 mm 6 mps 749 mmHg 46%
13:00 +28°C° 0 mm 7 mps 748 mmHg 42%
14:00 +28°C° 0 mm 7 mps 748 mmHg 41%
15:00 +28°C° 0 mm 7 mps 748 mmHg 40%
16:00 +28°C° 0 mm 6 mps 748 mmHg 39%
17:00 +27°C° 0 mm 5 mps 748 mmHg 45%
18:00 +25°C° 0 mm 4 mps 748 mmHg 50%
19:00 +22°C° 0 mm 3 mps 748 mmHg 56%
20:00 +22°C° 0 mm 3 mps 747 mmHg 56%
21:00 +21°C° 0 mm 3 mps 747 mmHg 57%
22:00 +20°C° 0 mm 3 mps 747 mmHg 57%
23:00 +20°C° 0 mm 2 mps 747 mmHg 58%

30 July, Friday

Time Temperature Precipitation Wind Pressure Humidity
00:00 +20°C° 0 mm 2 mps 747 mmHg 59%
01:00 +20°C° 0 mm 2 mps 747 mmHg 60%
02:00 +20°C° 0 mm 2 mps 747 mmHg 60%
03:00 +20°C° 0 mm 2 mps 747 mmHg 61%
04:00 +20°C° 0 mm 2 mps 747 mmHg 61%
05:00 +20°C° 0 mm 2 mps 747 mmHg 60%
06:00 +21°C° 0 mm 2 mps 747 mmHg 58%
07:00 +23°C° 0 mm 2 mps 747 mmHg 57%
08:00 +24°C° 0 mm 2 mps 747 mmHg 53%
09:00 +26°C° 0 mm 3 mps 747 mmHg 49%
10:00 +27°C° 0 mm 4 mps 747 mmHg 46%
11:00 +28°C° 0 mm 4 mps 746 mmHg 43%
12:00 +28°C° 0 mm 5 mps 746 mmHg 41%
13:00 +29°C° 0 mm 6 mps 746 mmHg 39%
14:00 +29°C° 0 mm 6 mps 746 mmHg 39%
15:00 +29°C° 0 mm 6 mps 745 mmHg 38%
16:00 +28°C° 0 mm 6 mps 745 mmHg 38%
17:00 +27°C° 0 mm 5 mps 745 mmHg 45%
18:00 +25°C° 0 mm 4 mps 745 mmHg 51%
19:00 +22°C° 0 mm 3 mps 745 mmHg 57%
20:00 +21°C° 0 mm 2 mps 745 mmHg 59%
21:00 +20°C° 0 mm 2 mps 745 mmHg 61%
22:00 +20°C° 0 mm 1 mps 745 mmHg 63%
23:00 +20°C° 0 mm 1 mps 745 mmHg 64%

31 July, Saturday

Time Temperature Precipitation Wind Pressure Humidity
00:00 +19°C° 0 mm 1 mps 745 mmHg 66%
01:00 +19°C° 0 mm 1 mps 745 mmHg 68%
02:00 +18°C° 0 mm 1 mps 745 mmHg 69%
03:00 +18°C° 0 mm 1 mps 745 mmHg 70%
04:00 +18°C° 0 mm 1 mps 745 mmHg 71%
05:00 +19°C° 0 mm 1 mps 745 mmHg 67%
06:00 +21°C° 0 mm 1 mps 745 mmHg 62%
07:00 +22°C° 0 mm 1 mps 745 mmHg 58%
08:00 +24°C° 0 mm 1 mps 745 mmHg 54%
09:00 +25°C° 0 mm 2 mps 745 mmHg 49%
10:00 +27°C° 0 mm 2 mps 745 mmHg 45%
11:00 +28°C° 0 mm 3 mps 744 mmHg 43%
12:00 +29°C° 0 mm 3 mps 744 mmHg 41%
13:00 +30°C° 0 mm 4 mps 744 mmHg 40%
14:00 +29°C° 0.1 mm 5 mps 744 mmHg 45%
15:00 +27°C° 0.1 mm 6 mps 744 mmHg 49%
16:00 +26°C° 0.1 mm 6 mps 744 mmHg 54%
17:00 +24°C° 0 mm 6 mps 744 mmHg 55%
18:00 +23°C° 0 mm 6 mps 744 mmHg 55%
19:00 +22°C° 0 mm 5 mps 744 mmHg 55%
20:00 +20°C° 0 mm 4 mps 745 mmHg 59%
21:00 +19°C° 0 mm 4 mps 745 mmHg 62%
22:00 +17°C° 0 mm 3 mps 745 mmHg 66%
23:00 +17°C° 0 mm 3 mps 746 mmHg 68%
Show more